Weather History for Teterboro, NJ

Change the Weather History Date:

Wednesday, May 1, 2013

  Actual Average Record
Temperature  
Mean Temperature 56 °F -  
Max Temperature 69 °F 66 °F 87 °F (2001)
Min Temperature 43 °F 45 °F 36 °F (2002)
Degree Days  
Heating Degree Days 10    
Growing Degree Days 6 (Base 50)    
Moisture  
Dew Point 38 °F    
Average Humidity 53    
Maximum Humidity 77    
Minimum Humidity 29    
Precipitation  
Precipitation 0.00 in - - ()
Sea Level Pressure  
Sea Level Pressure 30.42 in    
Wind  
Wind Speed 4 mph (ESE)    
Max Wind Speed 12 mph    
Max Gust Speed 24 mph    
Visibility 10 miles    
Events      
Averages and records for this station are not official NWS values.
T = Trace of Precipitation, MM = Missing Value Source: NWS Daily Summary

Daily Weather History Graph

Daily Weather History Graph

Search for Another Location

Airport:

Trip Planner

Search our weather history database for the weather conditions in past years. The results will help you decide how hot, cold, wet, or windy it might be!

Date:

Astronomy

May. 01, 2013 Rise Set
Actual Time 5:54 AM EDT 7:52 PM EDT
Civil Twilight 5:24 AM EDT 8:22 PM EDT
Nautical Twilight 4:48 AM EDT 8:59 PM EDT
Astronomical Twilight 4:08 AM EDT 9:38 PM EDT
Moon 1:00 AM EDT (5/1) 11:29 AM EDT (5/1)
Length of Visible Light 14h 58m
Length of Day
13h 58m
Waning Gibbous, 59% of the Moon is Illuminated
May 1
Waning Gibbous
May 2
Last Quarter
May 9
New
May 18
First Quarter
May 25
Full

Hourly Weather History & Observations

Time (EDT) Temp. Windchill Dew Point Humidity Pressure Visibility Wind Dir Wind Speed Gust Speed Precip Events Conditions
12:51 AM 48.9 °F - 28.9 °F 46% 30.34 in 10.0 mi Calm Calm - N/A   Clear
1:51 AM 45.0 °F - 30.0 °F 56% 30.35 in 10.0 mi Calm Calm - N/A   Clear
2:51 AM 45.0 °F 42.6 °F 33.1 °F 63% 30.35 in 10.0 mi North 4.6 mph - N/A   Clear
3:51 AM 45.0 °F - 35.1 °F 68% 30.36 in 10.0 mi Calm Calm - N/A   Clear
4:51 AM 43.0 °F - 34.0 °F 71% 30.37 in 10.0 mi Calm Calm - N/A   Clear
5:51 AM 44.1 °F - 36.0 °F 73% 30.39 in 10.0 mi Calm Calm - N/A   Clear
6:51 AM 46.0 °F 43.9 °F 36.0 °F 68% 30.41 in 10.0 mi North 4.6 mph - N/A   Clear
7:51 AM 52.0 °F - 35.1 °F 53% 30.42 in 10.0 mi Calm Calm - 0.00 in   Clear
8:51 AM 57.0 °F - 30.9 °F 37% 30.44 in 10.0 mi NE 3.5 mph - N/A   Clear
9:51 AM 60.1 °F - 28.0 °F 30% 30.44 in 10.0 mi East 6.9 mph - N/A   Clear
10:51 AM 61.0 °F - 28.0 °F 29% 30.45 in 10.0 mi East 9.2 mph - N/A   Clear
11:51 AM 63.0 °F - 36.0 °F 37% 30.44 in 10.0 mi East 11.5 mph 24.2 mph N/A   Clear
12:51 PM 64.9 °F - 34.0 °F 32% 30.43 in 10.0 mi ENE 10.4 mph 20.7 mph N/A   Clear
1:51 PM 66.0 °F - 41.0 °F 40% 30.43 in 10.0 mi ESE 5.8 mph 18.4 mph N/A   Clear
2:51 PM 66.9 °F - 42.1 °F 40% 30.41 in 10.0 mi SE 6.9 mph - N/A   Clear
3:51 PM 66.0 °F - 43.0 °F 43% 30.41 in 10.0 mi East 8.1 mph - N/A   Clear
4:51 PM 68.0 °F - 45.0 °F 43% 30.41 in 10.0 mi SSE 11.5 mph 24.2 mph N/A   Partly Cloudy
5:51 PM 63.0 °F - 44.1 °F 50% 30.43 in 10.0 mi SSE 10.4 mph - N/A   Clear
6:51 PM 62.1 °F - 43.0 °F 50% 30.44 in 10.0 mi South 9.2 mph - N/A   Clear
7:51 PM 57.9 °F - 43.0 °F 58% 30.45 in 10.0 mi South 9.2 mph - N/A   Clear
8:51 PM 55.9 °F - 43.0 °F 62% 30.46 in 10.0 mi South 6.9 mph - N/A   Clear
9:51 PM 53.1 °F - 44.1 °F 71% 30.48 in 10.0 mi Calm Calm - N/A   Clear
10:51 PM 52.0 °F - 44.1 °F 74% 30.48 in 10.0 mi SSW 3.5 mph - N/A   Clear
11:51 PM 50.0 °F - 43.0 °F 77% 30.48 in 10.0 mi Calm Calm - N/A   Clear